Location: Oshawa
(43.9000°N, 78.8670°W)
Time: 20:58:23
(UTC-04:00)

Daily predictions for brighter satellites

Satellite Brightness Start Highest point End
(mag) Time Altitude Azimuth Time Altitude Azimuth Time Altitude Azimuth
Cosmos 1437 Rocket 3.7 21:32:15 10° NNW 21:35:57 47° W 21:39:39 10° S
deb Chang Zheng 4 3.6 21:32:15 10° NNE 21:36:35 71° ESE 21:40:55 10° S
Cosmos 304 Rocket 4.2 21:35:34 10° NNW 21:40:21 65° WSW 21:45:06 10° S
Cosmos 1726 3.2 21:37:03 10° NNE 21:40:26 30° ENE 21:43:49 10° SE
Cosmos 2298 Rocket 4.5 21:36:16 10° S 21:41:14 41° ESE 21:46:11 10° NE
Sich 1 4.0 21:41:33 10° SSE 21:45:25 31° E 21:49:18 10° NNE
Cosmos 1151 Rocket 3.6 21:43:37 10° NNW 21:47:52 59° W 21:52:07 10° S
PSLV R/B 3.4 21:45:19 10° SSE 21:48:18 53° ENE 21:51:18 10° N
Cosmos 1939 Rocket 3.1 21:45:21 10° S 21:49:15 70° WSW 21:53:08 10° NNW
CZ-4B R/B 4.3 21:44:42 10° NNE 21:49:30 35° E 21:54:11 10° SSE
Cosmos 1633 Rocket 3.8 21:47:52 10° SSE 21:51:49 34° E 21:55:46 10° NNE
Cosmos 2237 4.3 21:47:20 10° NNW 21:53:06 90° WSW 21:58:49 10° SSE
Meteor 1-4 Rocket 3.6 21:50:26 10° N 21:53:50 31° ENE 21:56:51 12° SE
SPOT 5 2.8 21:52:10 10° SSE 21:56:48 83° ENE 22:01:45 10° NNW
USA 245 3.3 21:59:33 14° SE 22:01:07 27° ENE 22:03:06 10° NNE
Cosmos 1680 Rocket 4.4 21:57:40 10° NNW 22:02:41 46° WSW 22:07:41 10° S
Cosmos 2219 3.4 21:57:18 10° SSW 22:03:04 84° WNW 22:08:51 10° NNE
Cosmos 292 Rocket 4.0 21:59:14 10° NNW 22:03:55 55° ENE 22:08:03 13° SE
Cosmos 2237 Rocket 3.0 22:00:40 10° NNW 22:06:01 39° ENE 22:10:50 12° ESE
Aureole 3 4.4 22:02:15 10° SSW 22:08:37 77° W 22:13:37 10° N
Cosmos 1805 Rocket 3.6 22:04:16 10° S 22:08:43 87° ESE 22:13:11 10° N
MetOp-B 4.2 22:03:24 10° SSE 22:08:45 85° ENE 22:14:09 10° NNW
Cosmos 2333 4.3 22:03:52 10° NNW 22:09:38 89° WSW 22:14:59 12° SSE
Cosmos 1328 4.4 22:06:08 10° SSW 22:10:01 58° W 22:13:57 10° N
H-2A R/B 3.3 22:05:52 11° ESE 22:10:09 29° ENE 22:14:48 10° N
Cosmos 2082 4.5 22:08:25 10° SSE 22:13:24 32° ESE 22:18:23 10° NE
DELTA 2 R/B(2) 4.3 22:12:27 10° SW 22:14:00 27° S 22:14:48 21° SE
Cosmos 1271 Rocket 3.0 22:10:18 10° N 22:14:04 51° ENE 22:17:01 16° SSE
Cosmos 2360 Rocket 3.7 22:10:40 10° NW 22:15:35 31° WSW 22:20:29 10° SSW
Cosmos 1898 Rocket 3.4 22:10:50 10° S 22:15:59 72° ESE 22:21:12 10° NNE
Cosmos 220 Rocket 4.3 22:14:46 10° S 22:19:00 50° ESE 22:23:19 10° NNE
Cosmos 858 Rocket 4.4 22:14:07 10° S 22:19:17 70° ESE 22:24:28 10° NNE
CZ-4C R/B 4.1 22:18:52 17° ESE 22:20:57 31° ENE 22:24:04 10° N
Iridium 2 4.4 22:19:28 17° SSE 22:22:03 38° E 22:25:39 10° NNE
NOSS 3-1 (A) 3.4 22:16:26 10° SSW 22:22:20 81° SE 22:28:55 10° NE
SPOT 1/Viking Rocket 3.5 22:17:51 13° SSE 22:22:31 80° ENE 22:27:42 10° NNW
NOAA 11 4.3 22:18:01 14° SSE 22:22:42 66° ENE 22:28:08 10° N
Cosmos 1626 3.4 22:21:48 18° SE 22:23:30 24° E 22:26:36 10° NE
Cosmos 1346 4.4 22:22:51 20° SE 22:23:51 24° E 22:26:22 10° NE
H-2A R/B 3.8 22:21:28 10° SSW 22:25:27 30° W 22:29:26 10° NW
Cosmos 1707 Rocket 4.0 22:22:02 10° NNW 22:26:20 61° W 22:30:39 10° S
Cosmos 1703 3.4 22:23:38 14° S 22:26:48 54° E 22:30:37 10° NNE
SL-14 R/B 3.4 22:23:57 10° SSW 22:27:55 78° W 22:31:58 10° N
Cosmos 2150 Rocket 4.1 22:23:48 10° SSW 22:29:15 87° WNW 22:34:46 10° NNE
OTV 4 2.3 22:28:18 10° SSW 22:29:40 16° S 22:29:40 16° S
YAOGAN 6 2.9 22:27:34 13° S 22:30:41 62° W 22:34:15 10° NNW
Cosmos 1666 Rocket 3.8 22:27:14 10° SSW 22:31:37 73° W 22:36:05 10° N
Terra 2.6 22:31:05 18° SE 22:34:07 37° ENE 22:38:30 10° N
SL-08 RB Rocket 3.6 22:32:55 18° SSE 22:36:11 76° ENE 22:40:42 10° N
Nadezhda 1 Rocket 4.0 22:36:51 10° N 22:42:56 68° E 22:47:24 19° SSE
ATLAS 2AS CENTAUR R/B 3.1 22:37:29 10° S 22:44:38 52° ESE 22:52:22 10° NE
Cosmos 1470 Rocket 3.5 22:42:22 19° S 22:45:21 63° E 22:49:38 10° NNE
Cosmos 2227 Rocket 2.2 22:40:21 10° S 22:45:53 60° ESE 22:51:29 10° NNE
Cosmos 1300 4.3 22:42:37 10° NNW 22:46:02 31° W 22:49:27 10° SSW
Cosmos 1933 Rocket 3.6 22:43:16 19° S 22:46:22 63° E 22:50:48 10° NNE
ERBS 2.2 22:45:12 10° SW 22:48:41 72° SE 22:52:09 10° NE
NOSS 0 Rocket 4.0 22:42:57 10° NNW 22:49:08 78° WSW 22:53:27 21° SSE
Tiangong 1 0.9 22:47:44 10° WSW 22:50:48 66° S 22:52:17 27° E
SAR-Lupe-2 4.4 22:49:41 26° ESE 22:51:06 37° ENE 22:54:27 10° N
OAO 2 Rocket 4.2 22:47:02 10° WSW 22:51:41 31° S 22:53:39 24° SE
ATLAS 3B R/B 3.1 22:47:33 10° NNW 22:54:33 58° NE 22:59:20 19° ESE
Cosmos 1745 Rocket 4.0 22:52:10 11° S 22:58:11 87° W 23:04:24 10° N
USA 32 4.5 22:55:28 10° NNW 23:00:39 60° W 23:04:53 15° SSW
SL-16 R/B 2.8 22:55:33 10° NNW 23:01:03 48° ENE 23:04:25 22° ESE
Lacrosse 4 Rocket 2.3 22:57:11 10° NNW 23:01:26 43° NE 23:03:42 24° ESE
DMSP B5D2-2 4.2 22:58:43 10° NNE 23:03:52 56° E 23:06:46 25° S
Cosmos 2333 Rocket 2.4 22:58:15 10° NNW 23:03:58 68° WSW 23:07:32 24° S
CZ-4 R/B 4.2 23:00:22 10° N 23:05:16 66° WNW 23:10:03 10° SSW
BREEZE-M TANK 4.2 22:42:22 10° WSW 23:05:57 76° SSE 23:10:31 10° ENE
Cosmos 1709 Rocket 4.3 23:02:51 24° SSE 23:06:17 49° E 23:12:07 10° NNE
Cosmos 2221 Rocket 4.5 23:03:22 10° N 23:07:37 37° ENE 23:09:20 27° ESE
ARGOS 3.8 23:03:30 16° S 23:07:41 50° W 23:12:55 10° NNW
Cosmos 1455 2.2 23:04:38 10° N 23:08:27 77° W 23:10:08 32° S
Cosmos 1937 Rocket 4.2 23:06:35 10° SW 23:11:41 53° WNW 23:16:46 10° NNE
Cosmos 2297 Rocket 2.1 23:07:58 16° SSW 23:12:31 69° ESE 23:18:10 10° NNE
Cosmos 1933 3.8 23:10:15 10° N 23:14:11 47° ENE 23:15:26 35° SE
COSMOS 2455 2.9 23:08:30 10° NNW 23:14:33 71° ENE 23:17:55 27° SE
Cosmos 2219 Rocket 3.0 23:10:10 10° NW 23:15:23 41° WSW 23:18:54 19° SSW
Cosmos 1386 Rocket 4.4 23:13:36 18° S 23:18:17 83° W 23:24:20 10° N
Cosmos 990 Rocket 4.4 23:14:04 10° SSW 23:19:09 63° WNW 23:24:17 10° NNE
Cosmos 192 4.4 23:14:28 10° NNW 23:19:23 71° WSW 23:21:44 31° S
Cosmos 1862 Rocket 4.1 23:21:12 10° NNW 23:25:26 52° W 23:27:33 27° SSW
CARTOSAT-1 3.8 23:25:07 31° S 23:27:01 61° W 23:31:18 10° NNW
Cosmos 2181 Rocket 4.0 23:30:08 10° N 23:36:34 80° E 23:39:49 32° SSE
CZ-4C R/B 3.9 23:35:29 10° NNW 23:41:49 37° NE 23:48:29 11° ESE
H-2A R/B 4.4 23:39:31 10° NE 23:42:10 17° E 23:42:10 17° E
Cosmos 1869 4.5 23:39:33 10° NNW 23:43:18 37° W 23:44:53 26° SW
Cosmos 1269 Rocket 4.1 23:39:06 10° NNW 23:44:24 70° WSW 23:46:29 37° S
IGS 5A 4.3 23:43:40 31° SSW 23:45:09 43° W 23:49:10 10° NNW
SeaSat 1 3.4 23:43:30 25° ESE 23:45:50 40° NE 23:50:26 10° NNW
NOSS 2-3 (C) 4.0 23:44:46 38° S 23:46:30 59° ESE 23:52:04 10° NE
H-2A R/B 3.0 23:46:30 23° SSW 23:49:22 41° W 23:54:31 10° NNW
Cosmos 2237 Rocket 3.4 23:44:56 10° NW 23:49:58 33° WSW 23:52:39 22° SSW
FALCON 9 R/B 3.5 23:30:51 10° W 23:50:55 47° SSW 23:54:02 32° SSE
Meteor 1-26 Rocket 4.2 23:45:22 10° N 23:51:01 75° E 23:53:14 39° SSE
Cosmos 1733 Rocket 4.5 23:53:33 24° E 23:53:52 24° E 23:57:26 10° NE
Cosmos 1869 Rocket 3.5 23:53:41 48° S 23:54:57 88° E 23:59:27 10° N
